This is the latest recevied weather packets stored in our database for station/object CA3DPI. If no packets are shown the sender has not sent any weather packets the latest 10 day(s).
| Time | Temp. | Humidity | Pressure | Rain* | Wind** | Luminosity | Snow |
|---|---|---|---|---|---|---|---|
| 1777853823 | 19.44° C | 33% | 1020.4 hPa | - | - | - | - |
| 1777853222 | 19.44° C | 33% | 1020.5 hPa | - | - | - | - |
| 1777852622 | 19.44° C | 34% | 1020.3 hPa | - | - | - | - |
| 1777852022 | 20° C | 33% | 1020.4 hPa | - | - | - | - |
| 1777851422 | 20° C | 33% | 1020.4 hPa | - | - | - | - |
| 1777850822 | 20° C | 33% | 1020.3 hPa | - | - | - | - |
| 1777850221 | 20.56° C | 33% | 1020.2 hPa | - | - | - | - |
| 1777849756 | 20.56° C | 33% | 1020.3 hPa | - | - | - | - |
| 1777849620 | 20.56° C | 33% | 1020.3 hPa | - | - | - | - |
| 1777849020 | 21.11° C | 33% | 1020.2 hPa | - | - | - | - |
| 1777848420 | 21.11° C | 33% | 1020.1 hPa | - | - | - | - |
| 1777847819 | 21.67° C | 32% | 1020 hPa | - | - | - | - |
| 1777847219 | 22.22° C | 32% | 1019.9 hPa | - | - | - | - |
| 1777846619 | 22.78° C | 30% | 1019.9 hPa | - | - | - | - |
| 1777846019 | 23.89° C | 29% | 1019.7 hPa | - | - | - | - |
| 1777845418 | 25° C | 26% | 1019.5 hPa | - | - | - | - |
| 1777844818 | 26.11° C | 27% | 1019.4 hPa | - | - | - | - |
| 1777844218 | 26.67° C | 26% | 1019.4 hPa | - | - | - | - |
| 1777843618 | 26.67° C | 24% | 1019.4 hPa | - | - | - | - |
| 1777843018 | 27.22° C | 26% | 1019.2 hPa | - | - | - | - |
| 1777842417 | 27.78° C | 26% | 1018.8 hPa | - | - | - | - |
| 1777841817 | 29.44° C | 24% | 1019.3 hPa | - | - | - | - |
| 1777841217 | 30° C | 21% | 1019.1 hPa | - | - | - | - |
| 1777840624 | 31.11° C | 27% | 1019 hPa | - | - | - | - |
| 1777840023 | 31.67° C | 21% | 1019 hPa | - | - | - | - |
* Rain since midnight (hover to see other rain measurements)
** Current wind speed in m/s (hover to see current wind gust speed)